Weather Roundup
Issued by NWS Springfield, MO

Home | Current Version | Previous Version | Text Only | Print | Product List | Glossary On
Versions: 1 2 3 4 5 6 7 8 9 10 11 12 13 14 15 16 17 18 19 20 21 22 23 24 25 26 27 28 29 30 31 32 33 34 35 36 37 38 39 40 41 42 43 44 45 46 47 48 49 50
000
NZUS99 KSGF 020759
HRRSGF

HOURLY WEATHER
NATIONAL WEATHER SERVICE SPRINGFIELD MO
300 AM CDT THU OCT 02 2014

......SGF CWA......

CITY           SKY/WX    TMP DP  RH WIND       PRES   REMARKS
SPRINGFIELD    CLEAR     72  67  84 S16       29.78F
JOPLIN         MOCLDY    74  68  81 S14       29.74F
WEST PLAINS    CLEAR     70  66  87 S6        29.87F
ROLLA          PTCLDY    71  66  84 S8        29.82S
OSAGE BEACH    CLEAR     70  64  83 NE6       29.80F

......SURROUNDING SGF CWA......

CITY           SKY/WX    TMP DP  RH WIND       PRES   REMARKS
CHANUTE        LGT RAIN  72  70  93 S7        29.73S
PARSONS        TSTM      73  70  90 S15G32    29.74R VSB 1
COFFEYVILLE    TSTM      72  69  90 S18       29.75R
EMPORIA        PTCLDY    65  64  97 E5        29.70F FOG
SILOAM SPRINGS CLEAR     73  64  73 S9        29.81R
HARRISON AR    MOCLDY    74  69  85 SE12      29.84F
NEAR YELLVILLE CLEAR     70  64  83 CALM      29.83F

......KANSAS AND MISSOURI......

CITY           SKY/WX    TMP DP  RH WIND       PRES   REMARKS
KANSAS CTY INT CLOUDY    66  64  93 E7        29.75F
DOWNTOWN KC    CLOUDY    68  64  87 E6        29.74S
COLUMBIA       LGT RAIN  64  62  93 E9        29.83F
SEDALIA        TSTM      66  63  90 SE9       29.80F FOG
ST JOSEPH      PTCLDY    63  62  97 SE6       29.73F
ST LOUIS       CLOUDY    70  67  90 SE7       29.85F
SPIRIT OF STL  MOCLDY    68  67  96 CALM      29.83F
KIRKSVILLE     CLOUDY    64  64 100 S5        29.80R
WICHITA        PTCLDY    69  60  73 S5        29.68F
TOPEKA         CLEAR     66  66 100 E6        29.71F
OLATHE         MOCLDY    64  62  93 E5        29.73F

......TENNESSEE......

CITY           SKY/WX    TMP DP  RH WIND       PRES   REMARKS
MEMPHIS        CLEAR     72  64  76 S8        29.90F
NASHVILLE      CLEAR     64  58  80 S5        29.98S

......ARKANSAS.......

CITY           SKY/WX    TMP DP  RH WIND       PRES   REMARKS
FAYETTEVILLE   CLEAR     74  69  85 SE6       29.80F
FT SMITH       CLOUDY    75  69  81 SE6       29.79F
LITTLE ROCK    CLEAR     73  68  84 S6        29.87S

......OKLAHOMA.......

CITY           SKY/WX    TMP DP  RH WIND       PRES   REMARKS
TULSA          CLOUDY    77  70  79 S12G18    29.72R
PONCA CITY     PTCLDY    77  66  68 S10       29.68F
MCALESTER      PTCLDY    77  70  79 S12G20    29.77S
OKLAHOMA CITY  CLOUDY    73  67  81 S13       29.72F

......IOWA............

CITY           SKY/WX    TMP DP  RH WIND       PRES   REMARKS
DES MOINES     FOG       64  62  93 E6        29.78F VSB 1/4
QUAD CITIES    LGT RAIN  64  61  90 E3        29.82S FOG

......ILLINOIS........

CITY           SKY/WX    TMP DP  RH WIND       PRES   REMARKS
QUINCY         LGT RAIN  66  64  93 E16       29.76F
CHICAGO        CLOUDY    63  56  78 SE7       29.87F




USA.gov is the U.S. government's official web portal to all federal, state and local government web resources and services.